Location: Hamilton
(37.7830°S, 175.2830°E)
Time: 19:17:07
(UTC+13:00)

Cosmos 1745 Rocket - Pass Details

Date: 24 January 2019
Orbit: 953 x 997 km, 83.0° (Epoch: 16 February)

Event Time Altitude Azimuth Distance (km) Brightness Sun altitude
Exits shadow 23:05:14 29° 344° (NNW) 1,739 5.0 -23.5°
Maximum altitude 23:08:42 76° 263° (W) 1,037 4.1 -23.9°
Drops below altitude 10° 23:15:06 10° 177° (S) 2,779 7.0 -24.7°
Sets 23:17:38 0° 175° (S) 3,729 7.8 -25.0°
